Weather History for KOVS - March, 2013

Change the Weather History Date:

Sunday, March 31, 2013

  Actual Average (KPDC) Record (KPDC)
Temperature  
Mean Temperature 38 °F -  
Max Temperature 44 °F 54 °F 83 °F (1986)
Min Temperature 33 °F 31 °F 7 °F (1969)
Degree Days  
Heating Degree Days 27    
Moisture  
Dew Point 31 °F    
Average Humidity 81    
Maximum Humidity 100    
Minimum Humidity 41    
Precipitation  
Precipitation 0.00 in - - ()
Sea Level Pressure  
Sea Level Pressure 29.84 in    
Wind  
Wind Speed 4 mph (WSW)    
Max Wind Speed 16 mph    
Max Gust Speed 24 mph    
Visibility 5 miles    
Events Fog    
Averages and records for this station are not official NWS values.
T = Trace of Precipitation, MM = Missing Value Source: NWS Daily Summary

Daily Weather History Graph

Daily Weather History Graph

Search for Another Location

Airport or City:

Trip Planner

Search our weather history database for the weather conditions in past years. The results will help you decide how hot, cold, wet, or windy it might be!

Date:

Astronomy

Mar. 31, 2013 Rise Set
Actual Time 6:45 AM CDT 7:28 PM CDT
Civil Twilight 6:17 AM CDT 7:57 PM CDT
Nautical Twilight 5:43 AM CDT 8:31 PM CDT
Astronomical Twilight 5:08 AM CDT 9:06 PM CDT
Moon No Moon Rise 9:27 AM CDT (3/31)
Length of Visible Light 13h 39m
Length of Day
12h 42m
Waning Gibbous, 77% of the Moon is Illuminated
Mar 31
Waning Gibbous
Apr 2
Last Quarter
Apr 10
New
Apr 18
First Quarter
Apr 25
Full

Hourly Weather History & Observations

Time (CDT) Temp. Windchill Dew Point Humidity Pressure Visibility Wind Dir Wind Speed Gust Speed Precip Events Conditions
12:01 AM 37.4 °F - 37.4 °F 100% 29.85 in 0.8 mi Calm Calm - N/A   Mostly Cloudy
12:53 AM 36.0 °F - 35.1 °F 97% 29.86 in 0.2 mi Calm Calm - N/A Fog Fog
1:12 AM 35.6 °F - 33.8 °F 93% 29.85 in 0.2 mi Calm Calm - N/A Fog Fog
1:27 AM 33.8 °F - 33.8 °F 100% 29.85 in 0.2 mi Calm Calm - N/A Fog Fog
1:53 AM 36.0 °F - 35.1 °F 97% 29.86 in 0.5 mi Calm Calm - N/A Fog Fog
2:53 AM 37.0 °F - 36.0 °F 96% 29.83 in 0.5 mi Calm Calm - N/A Fog Fog
3:40 AM 39.2 °F 33.6 °F 37.4 °F 93% 29.82 in 1.2 mi SSW 8.1 mph - N/A   Overcast
3:49 AM 39.2 °F 35.0 °F 37.4 °F 93% 29.82 in 2.5 mi SW 5.8 mph - N/A   Overcast
3:53 AM 39.0 °F 35.7 °F 37.9 °F 96% 29.84 in 2.5 mi SW 4.6 mph - N/A   Overcast
4:24 AM 39.2 °F 34.2 °F 37.4 °F 93% 29.82 in 3.0 mi West 6.9 mph - N/A   Overcast
4:53 AM 37.9 °F 33.5 °F 36.0 °F 93% 29.83 in 4.0 mi WSW 5.8 mph - N/A   Overcast
5:53 AM 37.0 °F 33.3 °F 34.0 °F 89% 29.83 in 4.0 mi Variable 4.6 mph - N/A   Overcast
6:28 AM 33.8 °F 29.6 °F 32.0 °F 93% 29.80 in 2.5 mi SSW 4.6 mph - N/A   Mostly Cloudy
6:40 AM 33.8 °F 28.6 °F 32.0 °F 93% 29.80 in 2.5 mi SSW 5.8 mph - N/A   Scattered Clouds
6:53 AM 33.1 °F 28.7 °F 32.0 °F 96% 29.82 in 1.8 mi SSW 4.6 mph - N/A   Clear
7:08 AM 33.8 °F 28.6 °F 32.0 °F 93% 29.81 in 2.0 mi SSW 5.8 mph - N/A   Clear
7:38 AM 35.6 °F 29.9 °F 33.8 °F 93% 29.80 in 3.0 mi SSW 6.9 mph - N/A   Clear
7:53 AM 35.1 °F 30.1 °F 33.1 °F 92% 29.82 in 3.0 mi SSW 5.8 mph - N/A   Clear
8:53 AM 37.0 °F 31.6 °F 33.1 °F 86% 29.82 in 8.0 mi West 6.9 mph - N/A   Mostly Cloudy
9:27 AM 35.6 °F 29.2 °F 32.0 °F 87% 29.81 in 6.0 mi West 8.1 mph 17.3 mph N/A   Overcast
9:53 AM 36.0 °F 29.6 °F 33.1 °F 89% 29.83 in 5.0 mi West 8.1 mph - N/A   Overcast
10:53 AM 37.9 °F 30.0 °F 33.1 °F 83% 29.83 in 7.0 mi West 12.7 mph - N/A   Overcast
11:53 AM 37.9 °F 30.9 °F 33.1 °F 83% 29.84 in 6.0 mi West 10.4 mph - N/A   Haze
12:53 PM 39.0 °F 32.8 °F 32.0 °F 76% 29.84 in 7.0 mi West 9.2 mph 20.7 mph N/A   Overcast
1:53 PM 39.9 °F 33.4 °F 30.0 °F 68% 29.84 in 9.0 mi WNW 10.4 mph 24.2 mph N/A   Overcast
2:48 PM 41.0 °F 34.7 °F 30.2 °F 65% 29.82 in 9.0 mi WNW 10.4 mph 18.4 mph N/A   Overcast
2:53 PM 39.9 °F 31.8 °F 30.0 °F 68% 29.84 in 9.0 mi NW 15.0 mph 20.7 mph N/A   Overcast
3:53 PM 41.0 °F 35.2 °F 28.0 °F 60% 29.84 in 10.0 mi West 9.2 mph 19.6 mph N/A   Overcast
4:53 PM 43.0 °F 37.7 °F 27.0 °F 53% 29.85 in 10.0 mi WNW 9.2 mph 23.0 mph N/A   Mostly Cloudy
5:53 PM 42.1 °F 34.2 °F 25.0 °F 51% 29.86 in 10.0 mi West 16.1 mph 23.0 mph N/A   Mostly Cloudy
6:53 PM 41.0 °F 34.7 °F 19.0 °F 41% 29.88 in 10.0 mi West 10.4 mph 19.6 mph N/A   Scattered Clouds
7:53 PM 37.9 °F 32.7 °F 18.0 °F 45% 29.91 in 10.0 mi Variable 6.9 mph - N/A   Clear
8:53 PM 36.0 °F 31.1 °F 19.0 °F 50% 29.94 in 10.0 mi West 5.8 mph - N/A   Clear
9:53 PM 35.1 °F 32.2 °F 16.0 °F 46% 29.97 in 10.0 mi NW 3.5 mph - N/A   Clear